CPA383 VHHH-LSZH

Flight info

Callsign CPA383
Flight time N/A
Altitude 34100
Route BEKOL A461 SHL W22 TEPID W24 OSNOV G586 QP B330 ELKAL W179 IGNAK/K0935S1010 W179 WFX/K0930S1040 W179 OMBON W195 VIDEK/K0933S1010 W195 LAXAL/K0926S1040 W195 IDOPA W197 ANDIM B215 IBANO G470 AKLAS/K0909S1100 W192 FKG A368 SARIN/K0900F360 N161 ABDUN/K0898F380 N161 GASBI/N0492F380 N161 LEYLA T916 MATAL DCT TABAS DCT REBLO UM11 CRM UM688 EKSUK UL852 NEGEM/N0484F400 DCT ANASA DCT DONIV DCT TADAM DCT PEROT DCT BEDOX DCT DIPSA DCT ERKIR DCT KPT L856 NEGRA
Aircraft A359/H-SDE2E3GHIJ1J3J4J5LM1ORWXY/LB1D1

Departure

Time 2026-05-05 07:23
Airport Hong Kong International Airport (VHHH)

Arrival

Time N/A
Airport Zürich Airport (LSZH)
Time Latitude Longitude Altitude Speed Heading
2026-05-05 06:14 22.31018 113.92521 42 ft 0 kts 115°
2026-05-05 07:09 22.31025 113.92506 41 ft 2 kts 115°
2026-05-05 07:10 22.31032 113.92490 42 ft 2 kts 115°
2026-05-05 07:10 22.31039 113.92474 41 ft 2 kts 116°
2026-05-05 07:10 22.31047 113.92459 40 ft 2 kts 141°
2026-05-05 07:10 22.31062 113.92450 39 ft 2 kts 169°
2026-05-05 07:11 22.31078 113.92450 40 ft 2 kts 203°
2026-05-05 07:11 22.31093 113.92458 39 ft 2 kts 206°
2026-05-05 07:11 22.31108 113.92466 40 ft 2 kts 206°
2026-05-05 07:11 22.31114 113.92469 41 ft 0 kts 206°
2026-05-05 07:14 22.31110 113.92467 40 ft 3 kts 206°
2026-05-05 07:14 22.31070 113.92446 40 ft 10 kts 206°
2026-05-05 07:15 22.30989 113.92404 43 ft 15 kts 205°
2026-05-05 07:15 22.30918 113.92367 43 ft 10 kts 212°
2026-05-05 07:15 22.30906 113.92309 43 ft 8 kts 296°
2026-05-05 07:15 22.30950 113.92273 43 ft 10 kts 333°
2026-05-05 07:16 22.31015 113.92247 43 ft 10 kts 340°
2026-05-05 07:16 22.31088 113.92220 43 ft 13 kts 341°
2026-05-05 07:16 22.31192 113.92181 43 ft 18 kts 341°
2026-05-05 07:16 22.31311 113.92136 43 ft 18 kts 341°
2026-05-05 07:17 22.31428 113.92092 43 ft 18 kts 341°
2026-05-05 07:17 22.31543 113.92048 43 ft 17 kts 340°
2026-05-05 07:17 22.31603 113.92014 43 ft 7 kts 306°
2026-05-05 07:17 22.31608 113.91964 43 ft 8 kts 263°
2026-05-05 07:18 22.31585 113.91886 43 ft 14 kts 251°
2026-05-05 07:18 22.31548 113.91771 43 ft 17 kts 251°
2026-05-05 07:18 22.31510 113.91652 43 ft 17 kts 251°
2026-05-05 07:18 22.31472 113.91536 43 ft 17 kts 251°
2026-05-05 07:19 22.31442 113.91444 44 ft 21 kts 251°
2026-05-05 07:19 22.31388 113.91275 44 ft 25 kts 251°
2026-05-05 07:19 22.31331 113.91100 44 ft 25 kts 251°
2026-05-05 07:19 22.31275 113.90927 43 ft 24 kts 251°
2026-05-05 07:20 22.31216 113.90743 43 ft 28 kts 251°
2026-05-05 07:20 22.31153 113.90549 43 ft 27 kts 251°
2026-05-05 07:20 22.31092 113.90360 42 ft 26 kts 251°
2026-05-05 07:20 22.31033 113.90176 43 ft 26 kts 250°
2026-05-05 07:21 22.30977 113.90002 43 ft 19 kts 251°
2026-05-05 07:21 22.30943 113.89897 43 ft 13 kts 251°
2026-05-05 07:21 22.30941 113.89822 43 ft 8 kts 307°
2026-05-05 07:21 22.30990 113.89791 43 ft 8 kts 340°
2026-05-05 07:22 22.31046 113.89771 42 ft 8 kts 350°
2026-05-05 07:22 22.31090 113.89796 42 ft 7 kts 52°
2026-05-05 07:22 22.31108 113.89843 42 ft 7 kts 71°
2026-05-05 07:22 22.31154 113.89983 43 ft 44 kts 70°
2026-05-05 07:23 22.31330 113.90525 40 ft 107 kts 71°
2026-05-05 07:23 22.31638 113.91482 45 ft 161 kts 71°
2026-05-05 07:23 22.32042 113.92733 480 ft 174 kts 70°
2026-05-05 07:23 22.32454 113.93956 1252 ft 178 kts 71°
2026-05-05 07:24 22.32870 113.95245 1914 ft 183 kts 72°
2026-05-05 07:24 22.33308 113.96555 2449 ft 189 kts 69°
2026-05-05 07:24 22.33974 113.97833 2811 ft 203 kts 58°
2026-05-05 07:24 22.34790 113.99138 3098 ft 217 kts 57°
2026-05-05 07:25 22.35669 114.00517 3338 ft 231 kts 57°
2026-05-05 07:25 22.36611 114.02000 3517 ft 245 kts 57°
2026-05-05 07:25 22.37551 114.03485 4101 ft 239 kts 56°
2026-05-05 07:25 22.38481 114.04960 4608 ft 237 kts 57°
2026-05-05 07:26 22.39410 114.06446 4995 ft 240 kts 58°
2026-05-05 07:26 22.40070 114.08095 5318 ft 241 kts 84°
2026-05-05 07:26 22.39894 114.09878 5574 ft 243 kts 112°
2026-05-05 07:26 22.39226 114.11605 5784 ft 255 kts 117°
2026-05-05 07:27 22.38463 114.13395 5995 ft 269 kts 117°
2026-05-05 07:27 22.37667 114.15301 6305 ft 279 kts 116°
2026-05-05 07:27 22.36881 114.17210 6695 ft 285 kts 116°
2026-05-05 07:27 22.36080 114.19178 7143 ft 288 kts 116°
2026-05-05 07:28 22.35276 114.21168 7626 ft 291 kts 116°
2026-05-05 07:28 22.34462 114.23180 8109 ft 293 kts 116°
2026-05-05 07:28 22.33713 114.25246 8636 ft 300 kts 107°
2026-05-05 07:28 22.33615 114.27502 9115 ft 308 kts 78°
2026-05-05 07:29 22.34503 114.29596 9637 ft 309 kts 54°
2026-05-05 07:29 22.35785 114.31471 10131 ft 313 kts 51°